Time,TemperatureF,DewpointF,PressureIn,WindDirection,WindDirectionDegrees,WindSpeedMPH,WindSpeedGustMPH,Humidity,HourlyPrecipIn,Conditions,Clouds,dailyrainin,SoftwareType,DateUTC
2013-01-16 00:04:00,40.0,-99.9,30.21,North,8,6.0,9.0,-999,-99.99,,,-99.99,,2013-01-16 05:04:00,
2013-01-16 00:12:00,40.0,-99.9,30.21,North,9,5.0,9.0,-999,-99.99,,,-99.99,,2013-01-16 05:12:00,
2013-01-16 00:23:00,40.0,-99.9,30.22,North,6,6.0,8.0,-999,-99.99,,,-99.99,,2013-01-16 05:23:00,
2013-01-16 00:33:00,40.0,-99.9,30.22,North,8,5.0,9.0,-999,-99.99,,,-99.99,,2013-01-16 05:33:00,
2013-01-16 00:43:00,40.0,-99.9,30.21,North,11,5.0,8.0,-999,-99.99,,,-99.99,,2013-01-16 05:43:00,
2013-01-16 00:53:00,40.0,-99.9,30.20,NNE,31,4.0,6.0,-999,-99.99,,,-99.99,,2013-01-16 05:53:00,
2013-01-16 01:03:00,40.0,-99.9,30.20,NNE,29,5.0,9.0,-999,-99.99,,,-99.99,,2013-01-16 06:03:00,
2013-01-16 01:12:00,40.0,-99.9,30.20,NE,34,4.0,7.0,-999,-99.99,,,-99.99,,2013-01-16 06:12:00,
2013-01-16 01:22:00,40.0,-99.9,30.20,NNE,33,4.0,6.0,-999,-99.99,,,-99.99,,2013-01-16 06:22:00,
2013-01-16 01:33:00,40.0,-99.9,30.20,NE,39,5.0,6.0,-999,-99.99,,,-99.99,,2013-01-16 06:33:00,
2013-01-16 01:43:00,40.0,-99.9,30.20,NNE,24,4.0,7.0,-999,-99.99,,,-99.99,,2013-01-16 06:43:00,
2013-01-16 01:53:00,41.0,-99.9,30.20,NNE,22,4.0,6.0,-999,-99.99,,,-99.99,,2013-01-16 06:53:00,
2013-01-16 02:02:00,41.0,-99.9,30.21,NNE,22,3.0,6.0,-999,-99.99,,,-99.99,,2013-01-16 07:02:00,
2013-01-16 02:12:00,41.0,-99.9,30.21,NNE,13,2.0,5.0,-999,-99.99,,,-99.99,,2013-01-16 07:12:00,
2013-01-16 02:22:00,41.0,-99.9,30.20,NNE,19,2.0,4.0,-999,-99.99,,,-99.99,,2013-01-16 07:22:00,
2013-01-16 02:33:00,41.0,-99.9,30.20,North,4,3.0,3.0,-999,-99.99,,,-99.99,,2013-01-16 07:33:00,
2013-01-16 02:42:00,41.0,-99.9,30.21,North,5,3.0,4.0,-999,-99.99,,,-99.99,,2013-01-16 07:42:00,
2013-01-16 02:52:00,41.0,-99.9,30.20,North,8,3.0,4.0,-999,-99.99,,,-99.99,,2013-01-16 07:52:00,
2013-01-16 03:03:00,41.0,-99.9,30.18,NE,34,5.0,6.0,-999,-99.99,,,-99.99,,2013-01-16 08:03:00,
2013-01-16 03:12:00,41.0,-99.9,30.18,NNE,33,4.0,6.0,-999,-99.99,,,-99.99,,2013-01-16 08:12:00,
2013-01-16 03:23:00,41.0,-99.9,30.18,NE,35,4.0,6.0,-999,-99.99,,,-99.99,,2013-01-16 08:23:00,
2013-01-16 03:33:00,41.0,-99.9,30.17,NE,52,4.0,6.0,-999,-99.99,,,-99.99,,2013-01-16 08:33:00,
2013-01-16 03:42:00,41.0,-99.9,30.17,NNE,24,3.0,5.0,-999,-99.99,,,-99.99,,2013-01-16 08:42:00,
2013-01-16 03:53:00,41.0,-99.9,30.15,NE,56,3.0,5.0,-999,-99.99,,,-99.99,,2013-01-16 08:53:00,
2013-01-16 04:02:00,41.0,-99.9,30.14,ENE,65,3.0,4.0,-999,-99.99,,,-99.99,,2013-01-16 09:02:00,
2013-01-16 04:12:00,41.0,-99.9,30.14,ENE,75,3.0,4.0,-999,-99.99,,,-99.99,,2013-01-16 09:12:00,
2013-01-16 04:22:00,41.0,-99.9,30.13,East,92,5.0,6.0,-999,-99.99,,,-99.99,,2013-01-16 09:22:00,
2013-01-16 04:33:00,42.0,-99.9,30.12,ESE,113,6.0,10.0,-999,-99.99,,,-99.99,,2013-01-16 09:33:00,
2013-01-16 04:43:00,42.0,-99.9,30.12,ESE,111,7.0,10.0,-999,-99.99,,,-99.99,,2013-01-16 09:43:00,
2013-01-16 04:53:00,42.0,-99.9,30.11,ESE,110,7.0,10.0,-999,-99.99,,,-99.99,,2013-01-16 09:53:00,
2013-01-16 05:03:00,42.0,-99.9,30.11,ESE,108,7.0,10.0,-999,-99.99,,,-99.99,,2013-01-16 10:03:00,
2013-01-16 05:12:00,42.0,-99.9,30.11,ESE,104,7.0,10.0,-999,-99.99,,,-99.99,,2013-01-16 10:12:00,
2013-01-16 05:22:00,42.0,-99.9,30.10,East,100,8.0,13.0,-999,-99.99,,,-99.99,,2013-01-16 10:22:00,
2013-01-16 05:33:00,42.0,-99.9,30.10,East,100,9.0,12.0,-999,-99.99,,,-99.99,,2013-01-16 10:33:00,
2013-01-16 05:43:00,42.0,-99.9,30.08,ESE,102,11.0,13.0,-999,-99.99,,,-99.99,,2013-01-16 10:43:00,
2013-01-16 05:53:00,42.0,-99.9,30.09,ESE,116,9.0,12.0,-999,-99.99,,,-99.99,,2013-01-16 10:53:00,
2013-01-16 06:02:00,42.0,-99.9,30.09,East,97,6.0,10.0,-999,-99.99,,,-99.99,,2013-01-16 11:02:00,
2013-01-16 06:12:00,42.0,-99.9,30.09,East,100,9.0,11.0,-999,-99.99,,,-99.99,,2013-01-16 11:12:00,
2013-01-16 06:23:00,42.0,-99.9,30.10,East,97,8.0,11.0,-999,-99.99,,,-99.99,,2013-01-16 11:23:00,
2013-01-16 06:33:00,42.0,-99.9,30.11,ESE,115,6.0,11.0,-999,-99.99,,,-99.99,,2013-01-16 11:33:00,
2013-01-16 06:43:00,42.0,-99.9,30.09,East,100,9.0,10.0,-999,-99.99,,,-99.99,,2013-01-16 11:43:00,
2013-01-16 06:53:00,42.0,-99.9,30.08,East,97,10.0,12.0,-999,-99.99,,,-99.99,,2013-01-16 11:53:00,
2013-01-16 07:03:00,42.0,-99.9,30.06,ESE,104,10.0,15.0,-999,-99.99,,,-99.99,,2013-01-16 12:03:00,
2013-01-16 07:13:00,42.0,-99.9,30.07,ESE,105,10.0,15.0,-999,-99.99,,,-99.99,,2013-01-16 12:13:00,
2013-01-16 07:22:00,42.0,-99.9,30.07,ESE,113,9.0,14.0,-999,-99.99,,,-99.99,,2013-01-16 12:22:00,
2013-01-16 07:33:00,42.0,-99.9,30.06,ESE,105,11.0,18.0,-999,-99.99,,,-99.99,,2013-01-16 12:33:00,
2013-01-16 07:43:00,42.0,-99.9,30.05,ESE,102,14.0,16.0,-999,-99.99,,,-99.99,,2013-01-16 12:43:00,
2013-01-16 07:53:00,42.0,-99.9,30.05,ESE,104,13.0,18.0,-999,-99.99,,,-99.99,,2013-01-16 12:53:00,
2013-01-16 08:03:00,41.0,-99.9,30.04,ESE,107,14.0,21.0,-999,-99.99,,,-99.99,,2013-01-16 13:03:00,
2013-01-16 08:13:00,41.0,-99.9,30.07,ESE,116,7.0,13.0,-999,-99.99,,,-99.99,,2013-01-16 13:13:00,
2013-01-16 08:23:00,41.0,-99.9,30.09,ESE,118,5.0,12.0,-999,-99.99,,,-99.99,,2013-01-16 13:23:00,
2013-01-16 08:33:00,41.0,-99.9,30.09,ESE,108,7.0,10.0,-999,-99.99,,,-99.99,,2013-01-16 13:33:00,
2013-01-16 08:43:00,41.0,-99.9,30.09,ESE,109,7.0,10.0,-999,-99.99,,,-99.99,,2013-01-16 13:43:00,
2013-01-16 08:53:00,41.0,-99.9,30.08,ESE,113,9.0,12.0,-999,-99.99,,,-99.99,,2013-01-16 13:53:00,
2013-01-16 09:03:00,41.0,-99.9,30.07,ESE,111,10.0,14.0,-999,-99.99,,,-99.99,,2013-01-16 14:03:00,
2013-01-16 09:12:00,41.0,-99.9,30.07,ESE,109,8.0,14.0,-999,-99.99,,,-99.99,,2013-01-16 14:12:00,
2013-01-16 09:23:00,41.0,-99.9,30.06,ESE,108,9.0,14.0,-999,-99.99,,,-99.99,,2013-01-16 14:23:00,
2013-01-16 09:33:00,41.0,-99.9,30.05,ESE,103,12.0,15.0,-999,-99.99,,,-99.99,,2013-01-16 14:33:00,
2013-01-16 09:43:00,41.0,-99.9,30.05,ESE,108,9.0,16.0,-999,-99.99,,,-99.99,,2013-01-16 14:43:00,
2013-01-16 09:53:00,41.0,-99.9,30.04,East,100,13.0,18.0,-999,-99.99,,,-99.99,,2013-01-16 14:53:00,
2013-01-16 10:03:00,41.0,-99.9,30.03,East,100,11.0,16.0,-999,-99.99,,,-99.99,,2013-01-16 15:03:00,
2013-01-16 10:12:00,41.0,-99.9,30.01,ESE,104,15.0,20.0,-999,-99.99,,,-99.99,,2013-01-16 15:12:00,
2013-01-16 10:23:00,41.0,-99.9,30.00,East,98,13.0,18.0,-999,-99.99,,,-99.99,,2013-01-16 15:23:00,
2013-01-16 10:33:00,41.0,-99.9,29.99,East,91,14.0,21.0,-999,-99.99,,,-99.99,,2013-01-16 15:33:00,
2013-01-16 10:43:00,41.0,-99.9,29.98,East,92,15.0,18.0,-999,-99.99,,,-99.99,,2013-01-16 15:43:00,
2013-01-16 10:53:00,41.0,-99.9,29.96,East,98,16.0,22.0,-999,-99.99,,,-99.99,,2013-01-16 15:53:00,
2013-01-16 11:04:00,41.0,-99.9,29.93,East,96,14.0,22.0,-999,-99.99,,,-99.99,,2013-01-16 16:04:00,
2013-01-16 11:12:00,41.0,-99.9,29.91,East,91,17.0,23.0,-999,-99.99,,,-99.99,,2013-01-16 16:12:00,
2013-01-16 11:23:00,41.0,-99.9,29.90,ESE,107,13.0,25.0,-999,-99.99,,,-99.99,,2013-01-16 16:23:00,
2013-01-16 11:33:00,41.0,-99.9,29.88,East,90,11.0,24.0,-999,-99.99,,,-99.99,,2013-01-16 16:33:00,
2013-01-16 11:43:00,41.0,-99.9,29.87,East,91,18.0,21.0,-999,-99.99,,,-99.99,,2013-01-16 16:43:00,
2013-01-16 11:53:00,41.0,-99.9,29.87,ESE,105,14.0,23.0,-999,-99.99,,,-99.99,,2013-01-16 16:53:00,
2013-01-16 12:03:00,41.0,-99.9,29.86,East,97,15.0,20.0,-999,-99.99,,,-99.99,,2013-01-16 17:03:00,
2013-01-16 12:12:00,41.0,-99.9,29.85,East,97,14.0,23.0,-999,-99.99,,,-99.99,,2013-01-16 17:12:00,
2013-01-16 12:23:00,41.0,-99.9,29.86,East,95,13.0,21.0,-999,-99.99,,,-99.99,,2013-01-16 17:23:00,
2013-01-16 12:33:00,41.0,-99.9,29.87,East,87,14.0,19.0,-999,-99.99,,,-99.99,,2013-01-16 17:33:00,
2013-01-16 12:44:00,41.0,-99.9,29.86,East,96,11.0,17.0,-999,-99.99,,,-99.99,,2013-01-16 17:44:00,
2013-01-16 12:53:00,42.0,-99.9,29.85,East,100,10.0,14.0,-999,-99.99,,,-99.99,,2013-01-16 17:53:00,
2013-01-16 13:03:00,42.0,-99.9,29.84,East,98,11.0,16.0,-999,-99.99,,,-99.99,,2013-01-16 18:03:00,
2013-01-16 13:13:00,42.0,-99.9,29.84,ESE,109,7.0,16.0,-999,-99.99,,,-99.99,,2013-01-16 18:13:00,
2013-01-16 13:23:00,43.0,-99.9,29.85,ESE,109,7.0,14.0,-999,-99.99,,,-99.99,,2013-01-16 18:23:00,
2013-01-16 13:33:00,43.0,-99.9,29.83,ESE,106,11.0,14.0,-999,-99.99,,,-99.99,,2013-01-16 18:33:00,
2013-01-16 13:43:00,43.0,-99.9,29.83,ESE,105,8.0,14.0,-999,-99.99,,,-99.99,,2013-01-16 18:43:00,
2013-01-16 13:53:00,43.0,-99.9,29.83,NE,43,5.0,7.0,-999,-99.99,,,-99.99,,2013-01-16 18:53:00,
2013-01-16 14:03:00,43.0,-99.9,29.83,SE,132,8.0,11.0,-999,-99.99,,,-99.99,,2013-01-16 19:03:00,
2013-01-16 14:13:00,43.0,-99.9,29.82,SE,130,5.0,11.0,-999,-99.99,,,-99.99,,2013-01-16 19:13:00,
2013-01-16 14:23:00,44.0,-99.9,29.82,ESE,106,6.0,8.0,-999,-99.99,,,-99.99,,2013-01-16 19:23:00,
2013-01-16 14:33:00,44.0,-99.9,29.83,East,98,2.0,6.0,-999,-99.99,,,-99.99,,2013-01-16 19:33:00,
2013-01-16 14:43:00,44.0,-99.9,29.82,East,93,4.0,4.0,-999,-99.99,,,-99.99,,2013-01-16 19:43:00,
2013-01-16 14:53:00,44.0,-99.9,29.82,East,93,3.0,4.0,-999,-99.99,,,-99.99,,2013-01-16 19:53:00,
2013-01-16 15:03:00,44.0,-99.9,29.81,East,95,2.0,3.0,-999,-99.99,,,-99.99,,2013-01-16 20:03:00,
2013-01-16 15:12:00,44.0,-99.9,29.80,ESE,114,1.0,3.0,-999,-99.99,,,-99.99,,2013-01-16 20:12:00,
2013-01-16 15:23:00,44.0,-99.9,29.79,SE,140,2.0,2.0,-999,-99.99,,,-99.99,,2013-01-16 20:23:00,
2013-01-16 15:33:00,44.0,-99.9,29.77,SE,128,5.0,5.0,-999,-99.99,,,-99.99,,2013-01-16 20:33:00,
2013-01-16 15:43:00,44.0,-99.9,29.76,SE,139,4.0,6.0,-999,-99.99,,,-99.99,,2013-01-16 20:43:00,
2013-01-16 15:53:00,44.0,-99.9,29.75,SSE,148,4.0,10.0,-999,-99.99,,,-99.99,,2013-01-16 20:53:00,
2013-01-16 16:03:00,44.0,-99.9,29.72,SSE,150,6.0,10.0,-999,-99.99,,,-99.99,,2013-01-16 21:03:00,
2013-01-16 16:13:00,44.0,-99.9,29.71,SSE,163,9.0,15.0,-999,-99.99,,,-99.99,,2013-01-16 21:13:00,
2013-01-16 16:23:00,45.0,-99.9,29.71,SSE,161,10.0,15.0,-999,-99.99,,,-99.99,,2013-01-16 21:23:00,
2013-01-16 16:33:00,45.0,-99.9,29.73,South,178,7.0,15.0,-999,-99.99,,,-99.99,,2013-01-16 21:33:00,
2013-01-16 16:43:00,45.0,-99.9,29.74,SSW,195,6.0,12.0,-999,-99.99,,,-99.99,,2013-01-16 21:43:00,
2013-01-16 16:53:00,46.0,-99.9,29.76,SW,229,5.0,12.0,-999,-99.99,,,-99.99,,2013-01-16 21:53:00,
2013-01-16 17:03:00,45.0,-99.9,29.80,WSW,257,4.0,10.0,-999,-99.99,,,-99.99,,2013-01-16 22:03:00,
2013-01-16 17:12:00,45.0,-99.9,29.82,WNW,282,8.0,11.0,-999,-99.99,,,-99.99,,2013-01-16 22:12:00,
2013-01-16 17:23:00,43.0,-99.9,29.83,WNW,290,8.0,12.0,-999,-99.99,,,-99.99,,2013-01-16 22:23:00,
2013-01-16 17:33:00,43.0,-99.9,29.83,West,263,3.0,9.0,-999,-99.99,,,-99.99,,2013-01-16 22:33:00,
2013-01-16 17:43:00,43.0,-99.9,29.82,West,267,5.0,9.0,-999,-99.99,,,-99.99,,2013-01-16 22:43:00,
2013-01-16 17:53:00,43.0,-99.9,29.82,NW,305,5.0,10.0,-999,-99.99,,,-99.99,,2013-01-16 22:53:00,
2013-01-16 18:03:00,42.0,-99.9,29.82,WNW,300,6.0,9.0,-999,-99.99,,,-99.99,,2013-01-16 23:03:00,
2013-01-16 18:12:00,41.0,-99.9,29.81,WNW,289,4.0,9.0,-999,-99.99,,,-99.99,,2013-01-16 23:12:00,
2013-01-16 18:23:00,41.0,-99.9,29.81,WNW,292,4.0,7.0,-999,-99.99,,,-99.99,,2013-01-16 23:23:00,
2013-01-16 18:33:00,41.0,-99.9,29.81,WNW,297,6.0,7.0,-999,-99.99,,,-99.99,,2013-01-16 23:33:00,
2013-01-16 18:43:00,41.0,-99.9,29.82,NW,304,6.0,8.0,-999,-99.99,,,-99.99,,2013-01-16 23:43:00,
2013-01-16 18:53:00,40.0,-99.9,29.84,NW,308,7.0,11.0,-999,-99.99,,,-99.99,,2013-01-16 23:53:00,
2013-01-16 19:03:00,40.0,-99.9,29.85,NW,305,8.0,14.0,-999,-99.99,,,-99.99,,2013-01-17 00:03:00,
2013-01-16 19:12:00,40.0,-99.9,29.85,NW,306,7.0,11.0,-999,-99.99,,,-99.99,,2013-01-17 00:12:00,
2013-01-16 19:23:00,40.0,-99.9,29.85,WNW,293,6.0,10.0,-999,-99.99,,,-99.99,,2013-01-17 00:23:00,
2013-01-16 19:33:00,39.0,-99.9,29.85,WNW,287,4.0,8.0,-999,-99.99,,,-99.99,,2013-01-17 00:33:00,
2013-01-16 19:43:00,39.0,-99.9,29.85,NW,304,5.0,9.0,-999,-99.99,,,-99.99,,2013-01-17 00:43:00,
2013-01-16 19:53:00,39.0,-99.9,29.85,WNW,295,4.0,7.0,-999,-99.99,,,-99.99,,2013-01-17 00:53:00,
2013-01-16 20:03:00,39.0,-99.9,29.84,WNW,295,2.0,8.0,-999,-99.99,,,-99.99,,2013-01-17 01:03:00,
2013-01-16 20:12:00,39.0,-99.9,29.84,WNW,282,3.0,6.0,-999,-99.99,,,-99.99,,2013-01-17 01:12:00,
2013-01-16 20:22:00,39.0,-99.9,29.84,WNW,287,2.0,3.0,-999,-99.99,,,-99.99,,2013-01-17 01:22:00,
2013-01-16 20:33:00,39.0,-99.9,29.84,WSW,238,1.0,4.0,-999,-99.99,,,-99.99,,2013-01-17 01:33:00,
2013-01-16 20:43:00,39.0,-99.9,29.84,WSW,247,2.0,4.0,-999,-99.99,,,-99.99,,2013-01-17 01:43:00,
2013-01-16 20:53:00,39.0,-99.9,29.85,West,266,3.0,4.0,-999,-99.99,,,-99.99,,2013-01-17 01:53:00,
2013-01-16 21:02:00,39.0,-99.9,29.85,WSW,258,3.0,7.0,-999,-99.99,,,-99.99,,2013-01-17 02:02:00,
2013-01-16 21:12:00,39.0,-99.9,29.85,WSW,252,4.0,7.0,-999,-99.99,,,-99.99,,2013-01-17 02:12:00,
2013-01-16 21:22:00,39.0,-99.9,29.84,WSW,251,3.0,6.0,-999,-99.99,,,-99.99,,2013-01-17 02:22:00,
2013-01-16 21:32:00,39.0,-99.9,29.85,WSW,249,3.0,6.0,-999,-99.99,,,-99.99,,2013-01-17 02:32:00,
2013-01-16 21:43:00,39.0,-99.9,29.85,WSW,249,3.0,6.0,-999,-99.99,,,-99.99,,2013-01-17 02:43:00,
2013-01-16 21:52:00,39.0,-99.9,29.85,WSW,249,3.0,6.0,-999,-99.99,,,-99.99,,2013-01-17 02:52:00,
2013-01-16 22:03:00,39.0,-99.9,29.85,West,261,5.0,9.0,-999,-99.99,,,-99.99,,2013-01-17 03:03:00,
2013-01-16 22:12:00,40.0,-99.9,29.85,WSW,251,3.0,7.0,-999,-99.99,,,-99.99,,2013-01-17 03:12:00,
2013-01-16 22:22:00,40.0,-99.9,29.85,West,267,4.0,10.0,-999,-99.99,,,-99.99,,2013-01-17 03:22:00,
2013-01-16 22:33:00,40.0,-99.9,29.85,WSW,255,6.0,9.0,-999,-99.99,,,-99.99,,2013-01-17 03:33:00,
2013-01-16 22:43:00,40.0,-99.9,29.86,WSW,253,6.0,11.0,-999,-99.99,,,-99.99,,2013-01-17 03:43:00,
2013-01-16 22:53:00,40.0,-99.9,29.86,WSW,244,5.0,9.0,-999,-99.99,,,-99.99,,2013-01-17 03:53:00,
2013-01-16 23:02:00,40.0,-99.9,29.86,West,266,4.0,8.0,-999,-99.99,,,-99.99,,2013-01-17 04:02:00,
2013-01-16 23:12:00,40.0,-99.9,29.86,West,268,4.0,8.0,-999,-99.99,,,-99.99,,2013-01-17 04:12:00,
2013-01-16 23:23:00,40.0,-99.9,29.86,West,261,6.0,8.0,-999,-99.99,,,-99.99,,2013-01-17 04:23:00,
2013-01-16 23:33:00,40.0,-99.9,29.86,West,272,5.0,8.0,-999,-99.99,,,-99.99,,2013-01-17 04:33:00,
2013-01-16 23:43:00,40.0,-99.9,29.86,West,280,6.0,11.0,-999,-99.99,,,-99.99,,2013-01-17 04:43:00,
2013-01-16 23:53:00,40.0,-99.9,29.87,West,264,3.0,6.0,-999,-99.99,,,-99.99,,2013-01-17 04:53:00,